Other Public Products
Issued by NWS Charleston, SC

Home | Current Version | Previous Version | Text Only | Print | Product List | Glossary On
Versions: 1 2 3 4 5 6 7 8 9 10 11 12 13 14 15 16 17 18 19 20 21 22 23 24 25 26 27 28 29 30 31 32 33 34 35 36 37 38 39 40 41 42 43 44 45 46 47 48 49 50
009
FPUS82 KCHS 022227
OPUCHS

TEST...KCHS/KSAV Gateway Observations...TEST
National Weather Service Charleston SC
500 PM EST FRI DEC 02 2016

NOTE: "fair" indicates few or no clouds below 12,000 feet with no
significant weather and/or obstructions to visibility.

SCZ050-WAZ558-NCZ071-TXZ119-213-PAZ071-DCZ001-FLZ074-172-MI076-
NYZ176-178-MAZ016-IL014-TNZ027-NJZ106-GAZ044-MD014-022300-
...Gateway Observations for Charleston International...

CITY           SKY/WX    TMP DP  RH WIND       PRES   REMARKS
Chas Airport   PTCLDY    57  34  41 N7        30.15R
Seattle        CLOUDY    48  43  82 S14       30.14F
Charlotte      PTCLDY    56  26  31 W5        30.13S
Dallas DFW     CLOUDY    64  30  27 E14       30.05F
Dallas Love    CLOUDY    64  33  31 E12       30.07S
Philladelphia  PTCLDY    47  25  42 W23G29    29.98R
Wash National  PTCLDY    48  29  47 NW20G25   30.07R
Baltimore      PTCLDY    44  29  55 NW16G23   30.05R
Miami          CLOUDY    78  72  81 NE8       30.03R
Detroit        CLOUDY    38  27  64 NW10      30.14R WCI  31
Newark         MOCLDY    48  27  44 W18G25    29.89R
Laguardia      MOCLDY    51  26  37 W22       29.88R
J F K          MOCLDY    50  28  42 W16       29.89R
Boston Logan   PTCLDY    47  31  53 W10       29.75R
Ft. Lauderdale CLOUDY    77  73  87 NE12      30.03R
Chicago O`Hare CLOUDY    37  27  67 NW8       30.23R WCI  31
Chicago Midway CLOUDY    40  27  59 W9        30.23R WCI  34
Houston Bush   CLOUDY    63  48  58 E14       30.05F
Houston Hobby  CLOUDY    62  52  69 E16       30.02F
Nashville      PTCLDY    57  27  31 N6        30.26R
Atlanta        MOCLDY    58  27  30 NW10      30.22R

$$

GAZ044-118-TXZ119-213-NCZ071-DCZ001-MDZ014-506-PAZ021-071-NJZ106-
NYZ176-178-MAZ106-OHZ011-021-055-MIZ076-KYZ091-ILZ014-INZ047-
MNZ060-022300-
...Gateway Observations for Savannah International...

CITY           SKY/WX    TMP DP  RH WIND       PRES   REMARKS
Savannah Arpt  PTCLDY    59  35  40 N8        30.17R
Atlanta        MOCLDY    58  27  30 NW10      30.22R
Charlotte      PTCLDY    56  26  31 W5        30.13S
Dallas DFW     CLOUDY    64  30  27 E14       30.05F
Houston Bush   CLOUDY    63  48  58 E14       30.05F
Wash National  PTCLDY    48  29  47 NW20G25   30.07R
Wash Dulles    MOCLDY    43  28  55 NW18      30.07R
Baltimore      PTCLDY    44  29  55 NW16G23   30.05R
Philadelphia   PTCLDY    47  25  42 W23G29    29.98R
Newark         MOCLDY    48  27  44 W18G25    29.89R
Laguardia      MOCLDY    51  26  37 W22       29.88R
J F K          MOCLDY    50  28  42 W16       29.89R
Boston         PTCLDY    47  31  53 W10       29.75R
Pittsburg      CLOUDY    39  30  70 SW9       30.08R WCI  33
Akron          CLOUDY    38  30  73 W12       30.10R WCI  30
Cleveland      CLOUDY    40  33  76 W10       30.13R WCI  33
Cincinnati     CLOUDY    39  30  70 W9        30.24R WCI  33
Columbus       CLOUDY    38  32  79 W8        30.21R WCI  32
Detroit        CLOUDY    38  27  64 NW10      30.14R WCI  31
Chicago O`Hare CLOUDY    37  27  67 NW8       30.23R WCI  31
Minneapolis    CLOUDY    32  23  69 NW6       30.27R WCI  26
Indianapolis   CLOUDY    40  32  73 W10       30.24S WCI  33

$$




USA.gov is the U.S. government's official web portal to all federal, state and local government web resources and services.